| time (UTC) | temp F | wind direction | speed MPH | gust MPH | rain 1hr in | rain 24hr in | rain mn in | humidity % | barometer mb |
| 20260905093048 | 65 | 59 | 0.0 | 4.0 | 0.00 | 0.11 | 0.11 | 86 | 1018.0 |
| 20260905091503 | 65 | 56 | 1.0 | 4.0 | 0.00 | 0.11 | 0.11 | 87 | 1017.9 |
| 20260905090042 | 65 | 76 | 0.0 | 9.0 | 0.01 | 0.11 | 0.11 | 86 | 1017.9 |
| 20260905084628 | 65 | 15 | 0.0 | 4.0 | 0.02 | 0.11 | 0.11 | 86 | 1017.8 |
| 20260905083032 | 63 | 132 | 0.0 | 2.0 | 0.04 | 0.11 | 0.11 | 91 | 1017.8 |
| 20260905081613 | 62 | 231 | 0.0 | 1.0 | 0.04 | 0.11 | 0.11 | 92 | 1017.7 |
| 20260905080022 | 62 | 211 | 0.0 | 2.0 | 0.03 | 0.10 | 0.10 | 87 | 1017.7 |
| 20260905074627 | 63 | 120 | 1.0 | 6.0 | 0.02 | 0.09 | 0.09 | 81 | 1017.5 |
| 20260905073034 | 65 | 30 | 3.0 | 11.0 | 0.00 | 0.07 | 0.07 | 78 | 1016.9 |
| 20260905071614 | 64 | 94 | 0.0 | 5.0 | 0.00 | 0.07 | 0.07 | 83 | 1016.3 |
| 20260905070004 | 64 | 19 | 1.0 | 11.0 | 0.00 | 0.07 | 0.07 | 85 | 1016.0 |
| 20260905064540 | 62 | 273 | 4.0 | 7.0 | 0.00 | 0.07 | 0.07 | 93 | 1015.5 |
| 20260905063114 | 59 | 319 | 0.0 | 0.0 | 0.00 | 0.07 | 0.07 | 96 | 1015.5 |
| 20260905061614 | 59 | 281 | 0.0 | 3.0 | 0.00 | 0.07 | 0.07 | 96 | 1015.2 |
| 20260905060154 | 58 | 345 | 0.0 | 4.0 | 0.00 | 0.07 | 0.07 | 96 | 1015.4 |
| 20260905054548 | 58 | 9 | 0.0 | 2.0 | 0.00 | 0.07 | 0.07 | 97 | 1015.1 |
| 20260905053116 | 57 | 310 | 0.0 | 0.0 | 0.00 | 0.07 | 0.07 | 96 | 1015.2 |
| 20260905051529 | 57 | 309 | 0.0 | 0.0 | 0.00 | 0.07 | 0.07 | 96 | 1015.0 |
| 20260905050129 | 57 | 309 | 0.0 | 0.0 | 0.00 | 0.07 | 0.07 | 96 | 1014.8 |
| 20260905044545 | 57 | 310 | 0.0 | 0.0 | 0.00 | 0.07 | 0.07 | 96 | 1015.0 |
| 20260905043120 | 57 | 310 | 0.0 | 0.0 | 0.00 | 0.07 | 0.07 | 96 | 1014.8 |
| 20260905041548 | 57 | 310 | 0.0 | 0.0 | 0.00 | 0.07 | 0.07 | 96 | 1014.9 |
| 20260905040130 | 57 | 310 | 0.0 | 0.0 | 0.00 | 0.07 | 0.07 | 95 | 1014.8 |
| 20260905034610 | 57 | 310 | 0.0 | 0.0 | 0.00 | 0.07 | 0.07 | 95 | 1014.8 |
| 20260905033010 | 57 | 325 | 0.0 | 1.0 | 0.01 | 0.07 | 0.07 | 95 | 1014.8 |
| 20260905031528 | 57 | 296 | 0.0 | 0.0 | 0.07 | 0.07 | 0.07 | 94 | 1015.0 |
| 20260905030127 | 58 | 315 | 0.0 | 0.0 | 0.07 | 0.07 | 0.07 | 94 | 1014.9 |
| 20260905024600 | 57 | 15 | 0.0 | 1.0 | 0.07 | 0.07 | 0.07 | 93 | 1015.0 |
| 20260905023036 | 58 | 317 | 0.0 | 2.0 | 0.06 | 0.06 | 0.06 | 92 | 1015.0 |
| 20260905021610 | 57 | 281 | 0.0 | 0.0 | 0.00 | 0.00 | 0.00 | 91 | 1014.9 |
| 20260905020044 | 57 | 275 | 0.0 | 0.0 | 0.00 | 0.00 | 0.00 | 90 | 1014.8 |
| 20260905014606 | 57 | 275 | 0.0 | 0.0 | 0.00 | 0.00 | 0.00 | 90 | 1015.0 |
| 20260905013030 | 57 | 271 | 0.0 | 2.0 | 0.00 | 0.00 | 0.00 | 89 | 1014.8 |
| 20260905011634 | 57 | 288 | 0.0 | 1.0 | 0.00 | 0.00 | 0.00 | 91 | 1014.8 |
| 20260905010005 | 56 | 284 | 0.0 | 0.0 | 0.00 | 0.00 | 0.00 | 91 | 1014.7 |
| 20260905004539 | 57 | 286 | 0.0 | 1.0 | 0.00 | 0.00 | 0.00 | 91 | 1014.6 |
| 20260905003121 | 56 | 284 | 0.0 | 0.0 | 0.00 | 0.00 | 0.00 | 91 | 1014.7 |
| 20260905001606 | 56 | 288 | 0.0 | 0.0 | 0.00 | 0.00 | 0.00 | 91 | 1014.5 |
| 20260905000159 | 56 | 289 | 0.0 | 1.0 | 0.00 | 0.00 | 0.00 | 90 | 1014.6 |
| 20260904234529 | 56 | 288 | 0.0 | 0.0 | 0.00 | 0.00 | 0.00 | 92 | 1014.4 |
| 20260904233133 | 55 | 288 | 0.0 | 0.0 | 0.00 | 0.00 | 0.00 | 93 | 1014.4 |
| 20260904231537 | 55 | 288 | 0.0 | 1.0 | 0.00 | 0.00 | 0.00 | 92 | 1014.4 |
| 20260904230129 | 56 | 286 | 0.0 | 0.0 | 0.00 | 0.00 | 0.00 | 91 | 1014.4 |
| 20260904224609 | 57 | 290 | 0.0 | 1.0 | 0.00 | 0.00 | 0.00 | 91 | 1014.3 |
| 20260904223022 | 57 | 284 | 0.0 | 1.0 | 0.00 | 0.00 | 0.00 | 89 | 1014.2 |
| 20260904221621 | 57 | 275 | 0.0 | 0.0 | 0.00 | 0.00 | 0.00 | 91 | 1014.4 |
| 20260904220026 | 57 | 275 | 0.0 | 0.0 | 0.00 | 0.00 | 0.00 | 88 | 1014.3 |
| 20260904214527 | 58 | 271 | 0.0 | 0.0 | 0.00 | 0.00 | 0.00 | 89 | 1014.2 |
| 20260904213122 | 59 | 319 | 0.0 | 0.0 | 0.00 | 0.00 | 0.00 | 87 | 1014.1 |
| 20260904211608 | 59 | 312 | 0.0 | 0.0 | 0.00 | 0.00 | 0.00 | 87 | 1013.9 |
| 20260904210100 | 59 | 298 | 0.0 | 3.0 | 0.00 | 0.00 | 0.00 | 84 | 1013.7 |
| 20260904204544 | 60 | 312 | 0.0 | 0.0 | 0.00 | 0.00 | 0.00 | 83 | 1013.5 |
| 20260904203133 | 61 | 310 | 0.0 | 0.0 | 0.00 | 0.00 | 0.00 | 81 | 1013.2 |
| 20260904201527 | 61 | 310 | 0.0 | 0.0 | 0.00 | 0.00 | 0.00 | 81 | 1013.1 |
| 20260904200128 | 62 | 107 | 0.0 | 0.0 | 0.00 | 0.00 | 0.00 | 80 | 1013.0 |
| 20260904194524 | 63 | 94 | 0.0 | 0.0 | 0.00 | 0.00 | 0.00 | 78 | 1012.8 |
| 20260904193108 | 63 | 144 | 0.0 | 0.0 | 0.00 | 0.00 | 0.00 | 77 | 1012.8 |
| 20260904191545 | 64 | 91 | 0.0 | 0.0 | 0.00 | 0.00 | 0.00 | 77 | 1012.7 |
| 20260904190123 | 64 | 89 | 0.0 | 0.0 | 0.00 | 0.00 | 0.00 | 76 | 1012.6 |
| 20260904184518 | 66 | 89 | 0.0 | 0.0 | 0.00 | 0.00 | 0.00 | 72 | 1012.4 |
| 20260904183117 | 66 | 119 | 0.0 | 0.0 | 0.00 | 0.00 | 0.00 | 71 | 1012.3 |
| 20260904181507 | 67 | 266 | 0.0 | 0.0 | 0.00 | 0.00 | 0.00 | 68 | 1011.9 |
| 20260904180022 | 69 | 267 | 0.0 | 0.0 | 0.00 | 0.00 | 0.00 | 64 | 1011.7 |
| 20260904174618 | 71 | 266 | 0.0 | 0.0 | 0.00 | 0.00 | 0.00 | 62 | 1011.5 |
| 20260904171539 | 76 | 219 | 0.0 | 2.0 | 0.00 | 0.00 | 0.00 | 48 | 1011.3 |
| 20260904170111 | 79 | 216 | 0.0 | 8.0 | 0.00 | 0.00 | 0.00 | 45 | 1011.3 |
| 20260904164504 | 80 | 117 | 0.0 | 10.0 | 0.00 | 0.00 | 0.00 | 42 | 1011.2 |
| 20260904163111 | 81 | 175 | 3.0 | 10.0 | 0.00 | 0.00 | 0.00 | 39 | 1011.2 |
| 20260904161544 | 81 | 126 | 2.0 | 10.0 | 0.00 | 0.00 | 0.00 | 39 | 1011.2 |
| 20260904154605 | 83 | 226 | 0.0 | 9.0 | 0.00 | 0.00 | 0.00 | 39 | 1011.1 |
| 20260904153037 | 86 | 94 | 0.0 | 2.0 | 0.00 | 0.00 | 0.00 | 36 | 1011.2 |
| 20260904151502 | 87 | 123 | 0.0 | 4.0 | 0.00 | 0.00 | 0.00 | 36 | 1011.2 |
| 20260904150029 | 88 | 221 | 0.0 | 1.0 | 0.00 | 0.00 | 0.00 | 36 | 1011.3 |
| 20260904144616 | 88 | 57 | 0.0 | 1.0 | 0.00 | 0.00 | 0.00 | 38 | 1011.5 |
| 20260904143114 | 87 | 217 | 0.0 | 0.0 | 0.00 | 0.00 | 0.00 | 44 | 1011.8 |
| 20260904141626 | 87 | 229 | 0.0 | 2.0 | 0.00 | 0.00 | 0.00 | 44 | 1011.9 |
| 20260904140054 | 86 | 76 | 0.0 | 1.0 | 0.00 | 0.00 | 0.00 | 47 | 1012.3 |
| 20260904134501 | 86 | 243 | 0.0 | 0.0 | 0.00 | 0.00 | 0.00 | 45 | 1012.5 |
| 20260904133029 | 86 | 128 | 0.0 | 2.0 | 0.00 | 0.00 | 0.00 | 45 | 1012.6 |
| 20260904131618 | 85 | 84 | 0.0 | 3.0 | 0.00 | 0.00 | 0.00 | 41 | 1012.8 |
| 20260904130053 | 85 | 78 | 0.0 | 2.0 | 0.00 | 0.00 | 0.00 | 44 | 1013.1 |
| 20260904124632 | 85 | 96 | 0.0 | 1.0 | 0.00 | 0.00 | 0.00 | 47 | 1013.4 |
| 20260904123039 | 84 | 77 | 0.0 | 2.0 | 0.00 | 0.00 | 0.00 | 42 | 1013.8 |
| 20260904121505 | 83 | 96 | 0.0 | 2.0 | 0.00 | 0.00 | 0.00 | 48 | 1014.1 |
| 20260904120049 | 83 | 74 | 0.0 | 3.0 | 0.00 | 0.00 | 0.00 | 45 | 1014.4 |
| 20260904114617 | 82 | 85 | 0.0 | 1.0 | 0.00 | 0.00 | 0.00 | 49 | 1014.5 |
| 20260904113041 | 81 | 85 | 0.0 | 2.0 | 0.00 | 0.00 | 0.00 | 51 | 1014.9 |
| 20260904111622 | 80 | 116 | 0.0 | 1.0 | 0.00 | 0.00 | 0.00 | 49 | 1015.2 |
| 20260904110023 | 80 | 71 | 0.0 | 2.0 | 0.00 | 0.00 | 0.00 | 51 | 1015.6 |
| 20260904104610 | 78 | 107 | 0.0 | 1.0 | 0.00 | 0.00 | 0.00 | 51 | 1015.8 |
| 20260904103038 | 78 | 121 | 0.0 | 1.0 | 0.00 | 0.00 | 0.00 | 50 | 1016.1 |
| 20260904101611 | 77 | 74 | 0.0 | 1.0 | 0.00 | 0.00 | 0.00 | 49 | 1016.3 |
| 20260904100029 | 76 | 258 | 0.0 | 2.0 | 0.00 | 0.00 | 0.00 | 54 | 1016.6 |
| 20260904094606 | 75 | 253 | 0.0 | 1.0 | 0.00 | 0.00 | 0.00 | 58 | 1016.9 |